Tracking 20093 objects as of 16-Dec-2019
HD Live streaming from Space Station
objects crossing your sky now

COSMOS 2251 DEB

Track COSMOS 2251 DEB now!
10-day predictions


NORAD ID: 35593
Int'l Code: 1993-036AML
Perigee: 760.0 km
Apogee: 927.3 km
Inclination: 74.1 °
Period: 101.6 minutes
Semi major axis: 7214 km
RCS: 0.0121 m2 (small)
Launch date: June 16, 1993
Source: Commonwealth of Independent States (former USSR) (CIS)
Launch site: PLESETSK MISSILE AND SPACE COMPLEX (PKMTR)

Note: This is SATELLITE DEBRIS
aabbcc
Your satellite tracking list
Your tracking list is empty




NASA's NSSDC Master Catalog

Two Line Element Set (TLE):
1 35593U 93036AML 19348.99027693 +.00000790 +00000-0 +38118-3 0  9996
2 35593 074.0877 229.5822 0115969 066.6630 294.6664 14.16703790539965
Source of the keplerian elements: AFSPC